Location: Ergnies
(50.0854°N, 2.0375°E)
Time: 08:46:33
(UTC+00:00)

Cosmos 1515 Rocket - Pass Details

Date: 14 January 2026
Orbit: 599 x 623 km, 82.5° (Epoch: 17 February)

Event Time Altitude Azimuth Distance (km) Brightness Sun altitude
Exits shadow 05:21:56 52° 217° (SW) 772 3.8 -22.3°
Drops below altitude 10° 05:25:28 10° 184° (S) 1,972 6.2 -21.7°
Sets 05:27:41 0° 181° (S) 2,869 7.1 -21.4°
